Location: *
(46.1866°S, 178.5290°W)
Time: 10:39:51
(UTC+00:00)

Cosmos 1943 Rocket - Pass Details

Date: 19 May 2021
Orbit: 813 x 842 km, 71.0° (Epoch: 12 June)

Event Time Altitude Azimuth Distance (km) Brightness Sun altitude
Rises 07:16:59 0° 213° (SSW) 3,427 5.8 -29.0°
Reaches altitude 10° 07:19:34 10° 220° (SW) 2,488 5.1 -29.4°
Maximum altitude 07:24:51 40° 287° (WNW) 1,243 3.4 -30.3°
Enters shadow 07:29:38 12° 352° (N) 2,308 4.5 -31.2°
